GFSSW_700_temp_159.txt.gz
Temp
11 11 11 12 12 12 12 12 12 12 12 12 12 12 12 12 12 12 12 13 12 12 12 12 12 11 10 12 10 12 10 10 11 11 10 10 10 10 11 10 10 10 10 8 10
12 12 12 12 12 12 12 12 12 12 12 12 12 12 12 12 12 12 12 12 12 12 12 11 11 11 12 13 12 12 11 11 11 11 10 10 10 11 11 11 10 10 9 9 10
12 12 12 12 12 12 12 12 12 12 12 12 12 12 12 12 12 11 12 12 12 12 12 10 11 11 13 13 12 12 12 11 10 9 10 10 10 10 11 11 11 9 8 10 9
12 12 12 12 12 12 12 12 12 12 12 12 12 12 12 12 12 12 12 12 12 12 12 11 11 12 14 14 13 11 11 10 9 10 9 10 10 10 10 10 11 9 8 8 8
12 12 12 12 12 12 12 12 12 12 12 12 12 12 12 11 10 12 12 12 12 12 12 10 12 13 14 13 13 12 10 10 9 10 10 9 9 9 10 10 10 10 9 8 8
12 12 12 12 12 12 12 12 12 12 12 11 11 11 11 10 11 12 12 12 12 12 12 11 12 12 13 13 12 12 11 10 9 9 10 10 10 10 10 10 10 10 9 9 9
12 12 12 12 12 12 12 12 11 11 11 11 11 11 11 10 11 12 12 12 12 12 11 11 11 12 13 13 12 11 11 10 10 9 9 9 10 10 10 10 10 10 10 9 9
12 12 12 12 12 12 12 11 11 11 11 11 11 11 10 11 11 11 11 11 12 12 12 11 12 12 13 12 12 12 13 10 10 9 10 9 9 9 9 10 10 10 9 9 8
12 12 12 12 12 12 12 11 11 11 10 10 10 10 10 11 12 11 11 11 12 11 12 12 12 12 13 14 14 14 12 12 11 11 11 9 9 9 10 10 10 10 9 9 9
12 12 12 12 12 12 12 11 11 11 11 11 10 11 10 10 10 11 11 10 11 10 11 12 12 13 14 15 12 10 13 15 12 11 11 10 10 10 9 10 9 11 9 9 8
12 12 12 12 12 12 12 11 11 11 11 11 11 11 11 10 11 10 11 10 10 10 11 12 13 14 15 15 14 14 13 15 14 12 12 12 11 11 10 11 9 9 10 10 9
12 12 12 12 12 12 12 11 11 11 11 11 11 11 11 10 10 10 10 11 11 11 12 13 13 15 15 15 15 14 14 14 14 13 13 13 12 11 11 11 11 11 10 10 10
11 12 12 12 12 12 12 12 11 11 11 12 11 11 11 11 11 11 10 11 12 12 13 14 15 14 14 14 14 15 15 15 15 14 13 14 13 13 11 11 11 9 10 10 10
11 11 11 11 11 12 11 11 11 11 11 14 12 12 11 11 12 12 11 12 12 13 13 13 14 13 13 14 14 16 16 15 14 14 12 13 11 13 13 11 11 10 10 10 10
10 10 10 11 11 11 12 11 11 11 16 13 13 13 12 12 13 12 11 11 12 13 13 14 13 14 13 14 14 16 14 15 15 15 14 13 13 10 13 13 12 11 12 11 11
10 11 10 10 11 11 11 11 11 11 16 14 13 12 12 12 13 12 11 11 12 13 13 14 14 14 14 14 14 15 15 15 15 16 17 18 17 13 14 15 13 13 12 12 10
10 10 10 10 10 10 10 10 11 13 15 15 14 13 13 13 13 12 12 12 13 13 14 14 14 13 14 14 15 15 15 17 17 18 19 16 16 16 13 14 14 13 12 12 12
10 10 10 10 10 10 10 8 12 15 15 15 15 14 14 14 14 13 13 13 13 14 15 15 15 14 14 15 15 15 15 18 15 16 16 16 17 16 14 14 13 12 12 12 12
10 10 10 10 9 9 9 10 12 14 15 15 14 15 15 15 15 14 14 14 14 14 15 16 16 15 15 15 15 15 15 17 16 16 17 14 16 15 14 14 13 12 12 11 12
9 9 9 9 9 9 8 10 12 13 12 13 14 14 15 15 15 15 15 15 15 14 14 16 16 15 15 15 15 15 16 16 17 16 16 18 17 17 14 14 14 13 12 11 13
9 7 9 9 9 8 8 11 12 12 11 12 13 15 15 16 15 15 15 15 15 15 14 15 16 15 15 14 15 15 15 16 16 17 19 18 18 17 16 14 14 13 12 11 10
8 7 9 8 8 8 9 11 11 11 11 11 12 13 14 15 15 15 16 15 15 15 15 15 16 16 15 15 15 15 16 16 17 16 17 17 16 15 15 14 13 12 10 10 12
7 6 7 8 8 10 10 10 10 10 11 11 11 12 13 13 14 14 15 15 15 14 15 15 15 16 15 15 15 15 15 16 16 17 15 16 15 13 13 13 12 10 11 12 11
7 7 6 6 7 8 9 10 10 9 9 10 11 11 12 12 12 13 14 14 13 14 14 14 15 16 16 15 14 15 15 16 16 17 17 17 15 13 12 11 11 11 11 11 11
5 6 5 8 8 7 7 8 9 9 10 10 10 10 11 12 12 13 13 14 13 13 13 14 14 15 16 15 15 16 16 16 15 16 16 16 15 14 13 12 11 10 10 11 10
4 3 4 4 5 5 6 7 7 8 9 9 9 10 10 11 11 12 13 13 13 14 13 13 14 14 15 16 15 16 16 16 16 15 15 15 15 14 13 12 11 10 10 10 8
3 3 3 4 5 6 7 7 7 7 7 7 8 8 9 9 10 10 10 11 12 12 13 13 14 14 15 14 15 16 15 15 15 15 15 15 15 14 12 11 11 10 10 9 8

GFSSW_700_temp_162.txt.gz
Temp
12 12 12 12 12 12 12 12 12 12 12 12 12 13 12 12 12 12 12 13 13 13 12 12 13 12 11 11 12 12 10 9 10 11 10 11 12 12 12 12 11 11 10 8 7
12 12 12 12 12 12 12 12 12 12 12 13 12 12 13 12 12 12 13 12 13 13 12 13 11 12 12 13 13 13 11 9 11 11 12 11 11 12 12 12 11 10 9 9 8
12 12 12 12 12 12 12 12 12 12 12 12 12 12 12 13 12 12 12 12 13 13 12 12 11 12 14 14 14 13 11 11 11 11 11 10 10 12 12 12 11 10 9 8 8
12 12 12 12 12 12 12 12 12 12 12 12 12 12 12 12 12 12 12 12 13 13 12 13 11 13 14 15 14 13 12 11 10 9 10 10 10 11 11 10 10 10 9 8 8
12 12 12 12 12 12 12 12 12 12 12 12 12 12 12 11 11 12 13 12 12 13 12 12 12 14 15 15 14 11 12 10 9 9 9 11 10 9 11 10 10 10 9 9 9
12 12 12 12 12 12 12 12 12 12 12 12 12 12 12 11 11 12 12 12 12 13 12 11 13 13 14 15 14 12 12 11 10 10 10 10 10 10 11 11 10 10 9 9 9
12 12 12 13 13 12 12 12 12 12 12 12 11 11 12 10 10 13 12 12 12 12 12 12 12 13 14 14 13 13 12 11 10 10 10 11 10 11 9 11 11 10 10 9 9
12 12 12 13 12 12 12 12 12 11 11 11 11 11 10 10 11 11 12 12 12 12 11 12 12 12 13 13 13 13 12 10 11 11 11 10 10 10 11 11 11 10 10 9 9
12 12 13 13 12 12 12 12 12 11 11 11 11 11 10 12 12 12 12 11 11 12 12 12 13 12 13 13 13 12 9 10 10 10 12 10 11 10 8 10 10 9 10 9 9
12 12 13 13 13 12 12 12 11 11 11 11 11 11 12 11 11 10 12 11 11 11 11 12 12 13 14 15 14 11 10 9 9 10 11 11 11 11 10 9 10 10 10 9 9
12 12 12 13 13 13 12 12 11 11 11 12 12 12 12 12 11 11 11 11 11 11 12 12 13 14 15 16 14 14 12 11 10 12 11 11 11 11 11 10 10 10 10 10 10
12 12 12 12 12 12 12 11 10 11 11 12 12 12 12 11 11 11 11 11 11 12 12 13 13 15 16 16 14 12 14 13 14 14 13 12 11 11 11 10 11 12 11 10 10
12 12 12 12 12 12 12 12 10 11 10 13 13 12 12 12 12 12 11 12 12 13 13 14 15 15 16 16 16 15 15 15 16 15 15 13 10 11 10 11 10 10 11 10 10
11 11 11 12 12 12 11 9 12 11 11 14 13 13 13 12 13 13 12 12 13 14 14 15 15 16 16 15 16 16 17 16 15 15 16 14 12 10 7 9 10 10 10 10 10
11 11 11 11 11 11 9 11 11 11 14 16 14 14 13 13 14 13 13 12 13 14 14 15 15 15 15 15 15 16 16 15 16 16 16 14 14 11 11 11 10 11 11 11 10
10 11 10 11 11 10 11 11 11 11 15 16 14 14 14 13 14 14 13 13 13 14 14 15 15 15 15 15 15 16 16 16 16 16 17 18 15 11 11 12 10 12 13 12 11
11 11 10 10 10 11 11 10 11 13 16 17 15 14 14 14 14 14 13 13 13 14 15 15 15 15 15 15 15 15 16 17 17 18 18 15 16 14 14 13 12 10 10 11 12
11 11 10 10 10 10 10 9 11 14 15 17 16 15 15 15 15 15 14 14 14 14 15 16 16 15 15 15 16 16 16 17 17 15 13 15 17 14 15 15 14 13 13 12 12
11 11 11 10 10 10 9 9 12 14 16 16 17 16 16 15 16 15 15 15 15 15 15 16 17 16 16 15 16 16 16 17 18 15 10 11 15 15 15 15 14 13 12 12 11
10 10 9 9 9 9 8 10 12 13 15 15 15 16 16 17 16 16 16 16 16 16 15 16 17 17 16 16 16 16 17 17 17 17 13 12 12 16 15 15 14 13 12 12 11
9 8 8 8 9 9 8 10 11 13 13 14 14 15 16 16 17 17 16 17 16 16 16 16 16 16 16 16 16 16 16 17 17 18 17 15 13 16 15 15 15 14 13 12 11
9 8 8 8 8 8 9 10 11 12 13 13 13 13 15 16 16 17 16 17 16 16 16 15 16 17 16 17 16 16 17 17 17 17 17 18 14 16 16 15 14 14 13 12 11
9 8 7 8 8 10 11 11 11 12 12 12 13 13 14 14 15 16 16 16 16 16 16 16 16 16 16 16 16 16 17 17 17 18 17 16 15 15 15 14 14 13 12 12 12
8 8 9 8 7 9 10 11 12 12 11 11 12 13 13 13 14 14 15 15 16 15 15 15 16 16 16 15 14 15 16 17 17 17 17 15 14 13 13 13 12 12 12 12 12
6 7 7 8 9 9 9 10 10 10 12 11 11 11 12 13 13 14 14 14 15 15 15 14 15 15 16 15 14 13 15 16 17 17 17 14 15 14 13 12 12 11 10 11 11
4 3 4 7 6 7 8 8 8 9 10 11 11 11 12 12 12 13 14 14 14 14 14 14 14 15 15 15 15 14 13 15 17 17 17 17 15 14 13 12 12 11 10 11 9
2 4 5 4 5 6 8 8 9 9 9 9 9 10 10 11 11 11 11 11 12 13 14 14 14 14 15 15 14 12 13 15 17 16 16 15 16 13 13 13 12 11 10 10 8

GFSSW_700_temp_168.txt.gz
Temp
12 12 12 12 12 12 12 13 13 13 13 13 13 13 12 12 12 12 13 12 12 12 12 12 12 11 11 10 10 9 10 11 10 10 11 11 10 9 10 12 10 10 11 10 9
12 12 12 12 12 13 13 13 13 13 13 13 13 13 13 13 12 12 12 12 12 12 12 13 13 12 13 10 10 10 11 11 11 11 10 10 9 10 9 10 10 11 10 10 8
12 12 12 12 12 13 13 13 13 13 13 13 13 13 13 13 13 12 12 12 12 12 12 13 13 13 13 12 12 11 12 12 11 10 10 9 9 10 9 9 11 11 11 10 8
12 12 12 12 12 13 13 13 13 13 13 13 13 13 13 13 13 12 12 12 12 12 13 13 13 12 12 12 11 12 12 12 11 10 10 9 10 10 10 9 10 10 10 10 9
12 12 12 13 13 13 13 13 13 13 13 13 13 13 13 13 12 12 12 12 12 12 13 13 12 12 12 12 12 12 12 11 10 9 10 10 9 9 10 9 8 9 10 10 9
12 12 12 13 13 13 13 13 13 13 13 13 13 13 13 13 12 12 12 12 12 12 12 13 12 12 12 12 12 12 12 9 9 10 9 10 9 9 9 9 9 8 9 9 9
12 12 13 13 13 13 13 13 13 13 13 13 13 13 13 13 13 12 12 13 12 12 12 12 12 12 12 12 12 11 11 10 12 11 9 9 9 9 9 10 9 9 9 9 8
12 12 13 13 13 13 13 13 13 13 13 13 13 13 13 13 13 12 12 13 12 12 12 12 12 12 12 12 12 12 12 11 12 12 10 10 9 9 9 9 9 9 9 9 8
12 12 13 13 13 13 13 13 12 12 12 12 13 13 12 12 12 13 13 12 12 12 12 12 12 12 12 12 12 12 12 11 12 12 10 10 9 9 9 9 9 9 9 9 9
13 13 12 13 13 13 13 12 12 12 12 12 13 12 12 12 12 12 13 12 12 11 12 12 12 12 13 12 12 13 12 12 12 11 10 10 10 9 9 9 9 9 9 9 9
12 12 13 12 12 13 12 12 12 12 12 13 13 12 12 11 12 12 12 12 11 11 11 12 12 12 13 13 13 13 13 13 12 12 11 11 10 10 10 9 9 9 10 9 9
12 12 12 12 12 12 12 12 11 11 14 14 13 13 11 11 11 12 12 12 11 11 11 12 12 14 14 14 13 13 14 13 13 12 11 10 12 12 11 11 10 9 9 9 9
13 13 12 12 12 12 12 12 10 11 13 16 15 14 13 12 12 12 12 12 12 12 12 12 14 13 13 13 13 13 14 14 13 12 11 10 11 11 12 11 10 10 9 9 9
13 13 13 12 12 11 11 12 12 12 12 16 15 15 13 12 12 12 13 12 12 13 12 13 14 14 14 14 14 14 15 14 13 13 12 11 11 12 12 12 10 11 11 10 10
12 13 13 12 11 11 11 11 11 12 9 15 15 14 14 14 13 14 13 12 13 13 12 13 13 14 14 14 15 15 15 15 13 14 13 12 10 14 13 14 13 12 11 11 10
12 12 12 12 11 10 11 11 11 11 10 14 15 15 14 13 13 13 13 12 13 13 13 13 13 14 14 15 15 15 15 15 15 14 13 13 13 13 14 15 14 12 12 11 11
12 12 12 12 11 11 10 10 10 10 14 14 14 15 15 14 14 13 13 13 13 13 13 14 14 14 14 15 15 15 15 14 12 12 11 14 13 14 14 14 14 13 12 12 12
12 12 12 12 11 10 10 10 11 13 13 13 13 13 14 14 14 13 13 13 13 13 14 13 14 14 15 15 15 15 15 14 12 9 12 14 14 14 14 13 14 14 12 12 12
12 12 12 11 11 10 10 9 12 12 12 13 14 14 14 14 14 14 14 14 14 14 14 14 14 15 15 15 15 15 15 15 15 13 12 14 14 14 14 14 14 14 13 12 12
11 11 11 9 10 10 9 10 11 12 12 12 11 12 13 14 14 14 14 15 15 15 15 15 14 16 15 15 15 15 15 15 14 9 10 12 12 14 14 14 14 14 13 13 13
10 10 9 9 9 9 9 10 11 11 11 11 12 12 12 13 13 14 14 14 15 15 15 15 14 16 15 15 16 15 15 15 15 15 9 8 13 15 15 14 14 14 13 13 13
10 9 9 9 9 9 10 9 9 10 11 11 11 12 12 12 13 13 14 14 15 15 15 16 15 15 16 16 15 16 16 16 15 15 15 14 14 15 14 14 14 13 13 12 12
9 8 7 7 8 8 8 8 8 9 10 11 11 12 12 12 12 12 13 14 14 15 15 15 15 15 15 16 16 16 16 16 16 15 15 13 14 14 14 13 13 13 12 12 11
8 7 6 6 6 6 7 8 8 10 10 10 11 11 12 12 12 12 12 14 14 14 14 15 15 15 15 16 16 16 16 16 15 14 14 13 13 14 14 13 13 13 12 11 12
7 8 7 6 6 6 6 7 8 9 9 10 10 11 11 11 11 12 12 12 13 13 14 14 14 15 15 15 15 15 15 15 15 14 13 14 13 14 15 14 13 13 11 13 12
6 6 7 6 6 6 7 7 7 8 8 9 9 10 9 10 8 9 10 11 12 13 13 13 14 15 15 15 14 15 15 15 15 14 14 14 14 12 14 14 13 12 13 13 13
5 5 6 7 6 5 6 6 6 6 8 7 7 8 9 9 8 8 8 9 9 11 11 12 12 13 13 14 14 13 14 15 14 15 14 14 14 12 13 13 14 14 13 14 13

GFSSW_700_temp_171.txt.gz
Temp
12 12 12 12 12 12 12 12 12 12 12 12 12 12 12 12 12 12 12 12 12 12 12 11 11 11 11 12 11 11 10 10 11 11 10 10 10 9 10 10 10 10 10 10 10
12 12 12 12 12 13 13 13 13 13 13 13 12 13 12 12 12 12 12 12 12 12 12 11 11 11 11 11 11 11 11 11 12 11 10 9 9 9 10 10 11 11 10 10 10
12 12 12 12 13 13 13 13 13 13 13 13 13 12 13 13 12 12 12 12 12 12 12 12 11 12 11 11 11 11 10 11 11 11 10 10 9 10 9 11 10 11 10 10 10
12 12 12 12 13 13 13 13 13 13 12 12 13 13 12 12 12 12 12 12 12 12 12 12 12 12 11 11 11 10 10 10 11 10 10 9 9 9 9 10 9 9 10 10 10
12 12 12 12 13 13 13 13 13 13 13 13 13 13 12 12 12 12 11 12 12 12 12 12 11 12 11 11 11 11 12 12 11 11 10 9 9 9 10 9 9 10 9 9 9
12 12 13 13 13 13 13 13 13 13 13 13 13 13 12 12 12 12 12 12 12 12 12 12 11 12 12 11 11 12 12 12 10 10 10 10 9 8 9 10 9 9 9 9 9
12 12 13 13 13 13 13 13 13 13 13 13 13 13 12 12 12 12 12 12 12 12 12 11 12 11 12 11 12 12 11 11 10 9 9 9 9 8 8 9 9 9 9 9 9
12 12 13 13 13 13 13 13 13 13 13 13 13 12 12 13 12 11 12 12 12 12 12 11 12 12 11 11 11 11 11 12 11 10 10 9 9 9 8 8 9 9 8 9 9
13 13 13 13 13 13 13 13 13 13 13 13 13 12 12 12 11 12 12 12 12 12 12 11 12 12 12 11 12 12 12 12 11 10 10 9 9 9 9 8 8 9 8 8 8
12 12 13 13 13 13 13 13 13 13 13 13 13 12 12 11 12 12 11 12 11 11 11 11 12 12 12 12 12 13 12 12 11 11 10 10 10 10 10 10 10 9 9 8 8
13 13 13 13 13 12 12 12 12 12 13 13 13 13 11 12 11 11 12 12 11 11 11 11 11 12 12 12 12 12 12 12 12 11 10 10 9 9 10 10 10 10 9 9 9
13 13 13 13 12 12 12 12 13 14 15 13 13 13 12 12 11 11 11 11 11 11 11 11 11 12 12 13 12 12 12 12 12 12 11 12 11 10 10 10 10 10 10 9 9
13 13 13 13 12 12 12 12 12 13 13 15 15 15 12 12 12 12 12 12 12 11 11 12 12 12 12 13 13 13 13 12 13 13 12 12 12 12 10 10 10 10 9 10 10
13 13 13 13 12 12 12 12 12 12 12 15 15 15 14 12 13 12 12 12 12 12 11 11 13 13 13 13 13 13 14 13 12 13 11 11 11 13 12 11 12 10 10 10 10
13 13 13 12 12 11 11 11 11 12 9 14 14 15 13 13 13 13 12 12 13 13 12 13 13 13 13 14 14 14 14 14 13 13 12 11 10 13 13 13 13 13 11 10 10
12 12 12 13 12 12 11 11 11 11 11 14 14 15 14 13 13 13 12 12 12 12 12 13 13 13 13 14 14 14 14 14 12 12 11 13 11 14 14 14 13 13 12 11 9
12 12 12 12 12 11 10 10 10 10 13 13 13 13 14 14 13 13 12 12 12 12 12 13 13 13 13 14 14 14 14 13 11 9 9 14 11 15 15 14 14 14 13 12 11
12 12 12 12 12 11 10 9 10 11 12 13 13 13 14 14 13 13 12 12 12 13 13 13 14 15 14 14 15 14 15 14 10 9 11 12 12 15 15 14 14 14 13 12 12
11 12 12 12 11 10 10 9 11 11 11 12 13 14 13 13 13 13 13 13 13 13 13 14 14 15 15 15 15 15 14 14 14 11 11 14 15 15 16 15 15 14 14 14 13
11 11 11 10 10 10 9 10 10 11 11 11 11 12 12 13 13 13 13 13 13 13 13 14 14 15 15 15 15 14 15 14 14 9 10 12 12 15 16 15 15 14 14 13 12
10 10 10 9 9 9 9 9 10 10 9 9 10 11 12 12 13 13 13 14 14 14 14 13 13 15 15 15 15 15 14 15 14 14 9 8 13 16 16 15 14 14 14 14 13
10 9 9 9 9 8 8 8 8 10 9 10 10 11 11 11 12 12 13 13 13 13 14 15 13 14 15 16 15 15 15 15 14 14 13 12 14 16 15 14 14 14 14 14 14
9 9 8 8 7 7 7 8 7 9 9 9 9 10 11 11 11 12 12 13 13 13 13 14 13 13 14 15 15 15 15 15 15 15 14 12 14 15 16 15 14 13 13 13 13
8 8 7 7 6 6 7 8 8 8 8 8 9 10 10 11 11 11 11 12 12 13 13 13 14 14 14 15 15 15 15 15 15 15 14 14 15 15 15 15 14 13 13 13 13
8 8 7 5 5 6 6 6 7 8 8 8 9 9 9 9 10 10 10 11 12 12 13 13 14 14 14 15 15 15 15 15 14 14 14 14 14 15 15 15 15 14 13 13 13
7 7 6 6 6 5 5 5 6 6 7 7 7 8 8 8 8 8 10 10 11 12 12 12 13 14 14 15 15 15 15 14 14 14 14 14 14 14 14 14 14 14 13 13 13
6 6 6 6 6 5 5 6 6 5 6 7 7 7 7 7 7 8 8 9 9 9 11 11 12 13 13 14 14 13 14 14 14 14 14 14 14 14 15 14 15 14 14 13 13

GFSSW_700_temp_174.txt.gz
Temp
11 12 12 12 12 12 12 12 12 12 12 12 12 12 11 12 12 12 12 12 12 12 11 11 12 11 11 11 11 11 11 11 12 12 11 11 10 9 10 10 10 10 10 10 10
12 12 12 12 12 12 12 12 12 12 13 13 12 12 12 11 12 12 12 12 12 11 11 12 11 11 12 12 11 11 11 11 11 11 11 10 11 10 10 10 10 10 10 10 10
11 12 12 12 12 12 12 12 12 12 12 13 13 12 12 12 11 11 12 12 12 12 12 11 11 11 12 12 11 11 11 11 10 10 9 10 10 10 10 10 10 10 10 10 10
11 12 12 12 12 12 12 12 12 12 12 12 12 12 12 12 12 11 11 12 12 12 11 11 11 11 11 12 12 12 11 10 10 10 10 10 9 9 10 10 9 9 9 10 10
12 12 12 12 12 12 12 12 12 13 13 12 12 12 12 12 12 12 11 11 12 12 11 11 11 11 12 11 12 11 10 10 10 10 9 9 9 9 10 9 10 9 9 9 9
12 12 12 12 12 12 12 12 13 13 12 12 12 12 12 12 12 12 11 11 12 12 12 11 11 12 12 11 11 11 11 10 10 11 10 10 10 9 10 10 10 9 9 9 9
12 12 12 12 13 13 12 12 12 12 12 12 12 12 12 11 11 11 12 11 11 12 12 11 11 12 11 12 12 11 11 11 10 10 10 10 8 8 9 9 10 9 9 9 9
12 12 12 13 13 13 13 13 13 13 13 12 12 12 12 12 11 11 11 11 11 12 11 11 11 12 12 12 12 11 11 10 10 10 9 9 9 9 9 10 9 9 9 9 9
12 12 13 13 13 13 13 13 13 12 13 12 12 12 12 11 11 11 11 11 11 11 11 11 11 11 12 12 12 11 11 11 11 11 10 9 9 9 9 9 10 10 10 10 9
13 13 13 13 13 13 13 13 13 13 13 13 12 12 12 11 11 11 11 12 11 11 11 11 11 11 12 12 12 12 11 12 11 11 10 10 10 9 9 9 9 10 10 11 10
13 13 13 13 13 13 13 13 13 13 13 13 13 12 12 12 11 11 11 11 11 11 11 11 11 11 12 12 12 11 12 12 12 11 11 11 11 11 10 10 10 9 9 11 11
13 13 13 13 13 12 13 13 13 13 14 13 13 12 12 12 11 11 11 11 11 11 11 11 11 11 11 12 12 12 12 12 12 12 11 10 11 11 11 11 11 10 9 10 11
13 13 13 13 13 13 13 12 13 12 13 14 14 14 12 12 12 12 12 11 11 11 11 11 11 11 11 12 12 12 13 13 12 12 11 10 12 12 12 12 11 10 9 9 10
13 12 13 13 13 12 12 12 12 11 12 13 13 14 13 12 12 12 12 11 11 11 11 11 12 11 12 12 12 13 13 13 12 12 11 11 11 13 13 13 12 11 10 10 10
13 12 13 13 13 12 12 11 11 11 9 13 13 14 13 12 12 12 11 11 12 12 11 12 12 12 12 13 13 14 13 13 13 11 11 12 11 13 13 14 14 13 12 11 11
13 12 13 13 12 12 11 10 10 11 11 13 13 13 13 12 12 12 12 11 11 12 11 12 12 12 13 13 13 13 13 13 11 10 9 12 11 14 14 14 14 13 13 13 12
12 12 12 12 12 12 10 10 10 10 12 12 12 12 13 12 12 12 12 12 11 11 12 12 13 13 13 13 13 13 13 11 8 7 7 12 10 14 15 14 14 14 14 14 13
12 12 12 12 12 11 10 9 10 11 11 12 12 12 13 13 13 12 12 12 12 12 12 12 13 14 14 14 14 14 14 13 9 6 10 10 11 15 15 15 15 14 14 13 12
12 11 12 12 11 10 9 9 10 11 11 11 12 13 13 12 12 13 13 13 13 13 11 12 13 14 14 14 14 14 14 14 13 10 10 11 14 14 16 16 15 15 14 14 13
11 11 11 11 10 9 9 9 10 10 10 10 11 11 12 12 12 13 13 13 13 13 13 13 13 14 14 14 14 14 14 13 13 9 9 12 14 15 16 16 15 14 14 14 13
11 10 10 10 10 9 8 9 9 9 9 9 10 11 11 12 12 13 13 13 13 13 13 13 12 14 13 14 15 14 14 14 14 13 7 7 13 15 15 15 15 14 14 14 13
10 10 9 9 8 8 8 8 8 8 8 9 9 10 11 11 11 11 12 13 13 13 13 13 12 13 14 14 14 14 14 15 14 12 13 12 14 15 15 15 15 14 14 14 14
10 9 9 8 8 8 7 7 7 8 8 8 9 9 9 10 10 11 12 12 12 12 13 13 12 12 13 14 13 14 14 15 14 14 14 11 14 15 16 15 15 14 14 14 14
9 8 8 8 8 7 7 7 7 7 7 7 8 8 9 9 10 10 11 12 12 12 12 12 13 13 14 15 15 15 15 15 15 14 14 14 15 15 15 15 15 14 14 14 13
8 8 7 7 6 6 6 6 7 7 7 7 7 8 8 8 9 9 10 11 11 11 12 12 12 13 13 14 14 15 15 15 15 15 14 15 15 15 15 15 15 14 14 14 14
7 7 6 6 5 5 5 5 5 6 6 6 6 7 7 7 7 8 8 9 10 10 11 11 12 12 13 14 14 15 15 15 15 14 14 14 14 15 15 15 15 15 14 14 14
7 6 6 6 5 5 5 5 5 5 5 5 5 5 6 5 6 6 6 8 8 8 10 10 11 11 12 13 13 13 14 15 14 14 14 14 15 14 14 15 15 15 15 14 14

GFSSW_700_temp_180.txt.gz
Temp
11 11 12 12 12 12 12 12 12 12 12 12 11 12 12 12 12 12 12 12 12 12 12 11 11 11 12 12 12 11 10 11 10 10 10 11 10 11 11 11 10 10 10 10 9
11 12 12 12 12 12 12 12 12 12 12 12 12 12 12 12 12 12 12 12 12 12 12 11 11 12 10 12 12 11 11 10 10 10 10 11 11 11 10 10 10 10 10 10 10
12 12 12 12 12 12 13 13 13 12 13 13 12 12 12 11 12 11 12 12 12 12 12 11 11 12 11 12 12 11 10 10 10 10 10 10 10 10 9 10 10 10 10 10 10
12 12 12 12 12 12 13 13 13 13 13 13 13 12 12 12 11 11 12 12 12 12 12 12 11 12 11 12 12 11 11 11 11 11 10 10 10 10 9 10 9 10 10 9 10
12 12 12 12 12 12 13 13 13 13 13 13 13 13 12 12 12 12 12 12 12 12 12 11 11 11 12 11 11 11 11 11 11 11 11 10 10 9 10 10 10 10 10 9 9
12 12 12 12 12 13 13 13 13 13 13 13 13 12 12 12 12 12 11 12 12 12 12 11 11 11 11 11 11 12 12 11 11 11 11 10 10 9 10 10 10 10 9 9 9
12 13 13 13 13 13 13 13 13 13 13 13 12 12 12 11 12 12 11 11 11 11 11 11 11 11 11 11 12 12 11 11 11 11 11 11 10 10 9 10 9 9 8 8 9
12 12 13 13 13 13 13 13 13 13 13 13 13 12 11 12 12 12 11 11 11 11 11 11 11 11 11 11 11 11 11 12 11 11 10 10 11 10 10 10 9 9 9 9 9
13 13 13 13 13 13 13 13 13 13 13 13 12 12 11 12 12 12 11 11 11 11 11 11 11 11 11 12 13 12 13 13 12 12 9 9 11 9 10 10 9 9 9 9 8
12 13 13 13 13 13 13 13 13 13 13 12 12 12 12 12 12 12 11 11 11 11 11 11 11 11 12 13 15 14 13 13 13 11 11 10 10 10 11 10 9 9 9 8 8
13 13 13 13 13 13 13 13 13 13 13 12 12 12 12 13 12 11 11 11 11 11 11 10 11 12 13 13 13 13 13 13 13 12 11 11 11 11 11 12 11 11 9 9 8
12 13 13 13 13 13 13 13 12 12 13 13 12 12 12 12 11 11 11 10 10 11 11 11 11 13 13 12 12 13 13 14 13 12 12 12 12 12 11 13 12 11 9 10 9
12 12 13 13 13 13 13 12 12 12 12 13 13 12 11 11 10 11 11 10 10 11 11 12 13 12 12 12 12 13 13 14 13 12 11 11 14 13 12 13 13 12 11 9 9
12 12 13 13 13 13 13 12 12 12 11 12 12 12 12 11 10 10 11 10 10 11 11 12 12 12 12 12 13 14 14 13 13 13 15 12 15 15 14 12 14 13 12 10 9
12 13 13 13 13 13 12 12 12 12 16 12 12 12 12 11 11 11 10 10 11 11 11 12 12 12 12 12 13 13 13 13 13 13 14 15 14 16 15 14 14 14 13 12 10
12 13 13 13 13 12 12 11 11 11 15 12 11 12 12 11 11 11 11 10 11 11 11 12 12 11 12 13 12 12 12 12 13 14 16 16 15 16 16 15 15 14 14 13 11
12 13 12 12 12 12 11 11 11 14 12 12 12 11 11 11 11 11 11 11 12 12 12 12 12 12 12 13 12 12 13 15 16 17 17 15 15 16 16 15 15 14 13 14 13
12 12 12 12 12 12 11 10 12 12 12 11 11 11 12 12 12 12 12 12 12 12 14 14 15 13 13 13 14 13 14 16 16 17 18 14 15 16 15 15 15 15 14 14 14
12 12 12 12 12 11 10 11 12 11 10 11 12 12 12 13 12 12 12 13 13 12 13 15 15 13 13 13 13 14 13 15 16 16 16 16 16 16 16 15 15 14 15 15 14
11 11 11 11 11 10 9 11 10 10 10 10 12 12 14 13 12 13 13 13 13 13 13 14 14 14 13 13 13 13 14 15 15 16 16 17 16 16 16 16 15 15 15 14 14
11 10 10 10 10 9 9 10 8 9 10 9 11 11 12 13 13 14 14 14 13 14 13 13 14 15 13 13 14 13 13 14 15 15 17 17 18 16 15 15 15 14 14 14 14
10 8 10 9 8 9 9 8 9 8 8 9 10 10 11 11 12 13 13 13 12 13 13 13 14 15 15 15 14 15 15 15 15 16 16 16 16 16 15 15 15 15 14 14 14
10 10 9 8 8 8 8 7 8 7 7 8 8 9 9 10 11 12 12 12 12 12 13 13 13 15 15 15 13 14 14 15 15 16 16 17 17 16 15 15 15 15 14 14 14
10 7 9 8 8 7 6 7 7 8 7 8 8 8 8 9 9 10 11 10 11 11 12 12 13 14 16 16 15 14 14 15 15 16 16 16 16 16 16 15 15 15 14 14 14
9 9 8 6 6 7 7 6 6 6 6 7 7 7 7 8 9 9 10 9 10 10 10 11 12 13 14 14 15 14 14 15 15 15 15 16 16 16 16 16 15 15 14 14 14
8 8 8 7 7 7 6 5 6 5 6 6 5 6 6 6 7 7 6 8 9 8 9 10 11 12 12 13 13 14 14 14 15 15 14 15 15 16 16 15 15 15 15 14 13
8 7 7 7 6 6 5 5 5 6 5 6 5 5 4 5 5 6 6 7 8 7 8 8 10 11 12 12 13 13 14 14 14 15 14 14 15 15 15 15 15 15 15 14 13

GFSSW_700_temp_183.txt.gz
Temp
11 12 12 12 12 12 12 12 12 12 12 12 12 12 12 12 12 12 12 12 12 12 12 11 12 11 10 12 11 11 11 12 12 11 11 11 11 11 11 11 11 10 11 10 10
12 12 12 12 12 12 12 12 12 12 12 12 12 12 12 12 12 12 12 12 12 12 12 11 10 11 12 13 12 12 12 12 12 11 11 11 11 11 11 11 11 10 9 11 8
11 12 12 12 12 12 13 13 13 13 12 12 12 12 12 12 12 11 12 12 12 12 12 11 11 12 13 13 13 13 13 12 12 11 11 10 10 10 11 11 11 10 9 10 8
12 12 12 12 13 13 13 13 13 13 13 13 13 13 12 12 12 12 12 12 12 12 12 11 11 13 14 14 13 12 12 12 11 11 10 10 10 11 10 10 11 10 9 8 8
12 12 12 12 13 13 13 13 13 13 13 13 13 13 12 12 11 12 12 12 12 12 12 11 12 13 14 14 14 13 12 11 11 10 10 11 11 10 10 10 10 10 9 9 9
12 12 12 13 13 13 13 13 13 13 13 13 13 13 13 11 12 13 12 12 12 12 12 11 12 13 13 14 14 13 12 12 11 11 11 10 10 10 10 10 10 10 9 9 9
12 12 13 13 13 13 13 13 13 13 13 13 13 13 13 11 12 13 12 12 12 12 11 12 12 12 13 14 13 13 13 12 12 12 12 10 11 10 10 10 10 10 10 10 9
13 13 13 13 13 13 13 13 13 13 13 13 13 13 11 13 13 13 12 12 12 12 11 11 11 12 13 13 13 13 14 15 13 12 12 11 11 11 10 10 10 10 10 10 10
13 13 13 13 13 13 14 13 13 13 13 13 13 13 11 13 13 12 12 11 11 11 12 12 12 12 14 13 15 15 16 15 15 13 12 11 11 11 10 10 10 10 10 10 9
13 13 13 13 13 13 14 14 13 13 13 13 13 12 13 13 12 12 12 11 11 11 11 11 11 13 14 15 17 16 16 16 15 14 12 13 13 13 11 10 11 10 9 9 10
13 13 13 13 13 13 13 13 13 13 13 13 12 12 11 12 11 11 12 11 11 11 12 12 13 14 15 16 16 16 15 15 15 14 13 14 14 13 13 11 11 11 10 10 10
12 13 13 13 13 13 13 13 11 12 12 13 13 12 11 11 11 11 11 11 11 12 12 13 13 14 15 15 15 15 15 16 16 14 13 14 14 14 14 13 12 11 11 11 10
12 13 13 13 13 13 13 13 13 12 12 13 12 11 11 11 12 12 11 11 13 13 13 14 15 15 15 15 14 15 15 16 16 15 15 14 15 15 15 14 13 12 11 11 10
12 13 13 13 13 13 13 13 12 12 12 14 13 12 11 11 12 13 12 12 12 13 14 15 14 15 14 15 15 16 16 16 15 15 16 14 17 16 16 15 14 13 12 12 10
12 13 13 13 13 12 13 12 12 12 16 13 12 12 12 12 14 12 12 12 13 13 13 15 14 14 15 15 15 15 16 15 15 15 16 17 17 18 16 16 15 14 13 12 12
12 13 13 13 13 12 12 12 12 12 17 14 13 12 12 12 13 13 12 12 13 13 14 14 15 14 14 15 14 15 15 15 15 16 18 18 18 19 18 17 16 16 15 14 13
12 12 13 13 12 12 12 11 12 15 15 15 14 14 13 13 14 13 12 12 13 13 14 15 14 14 14 14 15 15 15 16 17 18 19 19 18 18 18 17 17 16 16 15 13
12 12 13 12 12 12 12 10 13 15 16 14 14 14 14 14 14 14 13 14 14 15 16 17 18 16 15 15 16 15 16 17 18 20 20 18 18 18 17 17 16 16 15 15 14
12 12 12 12 12 12 11 12 15 15 14 14 15 15 15 15 15 15 14 15 15 14 15 17 17 16 16 15 15 16 15 16 17 18 19 19 19 18 18 17 17 17 15 14 14
12 11 12 12 12 11 9 12 13 12 11 13 14 15 16 16 15 15 16 15 15 15 15 15 16 16 16 15 15 15 16 17 17 17 17 19 19 19 17 17 17 17 16 14 14
11 9 11 11 11 9 11 13 12 11 11 12 14 14 15 16 16 15 16 16 16 15 15 15 15 16 16 15 16 16 15 16 17 17 18 19 19 18 17 16 16 16 15 15 13
10 10 10 10 8 11 12 12 10 11 10 11 11 12 13 14 15 15 15 16 15 15 16 15 16 16 16 17 16 16 16 16 17 17 17 18 18 18 17 17 16 15 15 14 13
8 8 10 9 11 12 11 10 9 10 11 11 11 12 12 12 13 14 14 15 14 14 14 15 15 16 16 17 17 17 17 17 17 18 18 18 18 17 17 16 16 15 14 14 14
9 9 8 8 8 9 10 10 10 9 9 9 10 10 10 11 12 13 13 14 13 12 13 13 14 16 17 17 15 16 16 16 17 17 17 18 17 18 17 16 16 15 14 13 14
9 8 9 10 9 8 8 9 9 10 9 8 9 9 10 10 11 12 12 12 12 12 11 12 13 14 15 16 16 14 13 15 16 17 17 17 18 17 15 17 17 16 14 13 14
9 9 9 7 8 7 8 9 8 8 7 8 9 8 9 8 9 10 11 10 11 11 11 11 12 13 14 14 15 16 16 16 16 16 16 16 16 16 16 16 16 16 15 13 13
9 8 8 6 7 7 8 7 6 5 6 6 6 6 7 7 6 6 7 7 8 8 9 9 10 12 13 13 14 15 15 15 16 16 16 16 16 16 16 16 16 16 15 13 12

GFSSW_700_temp_186.txt.gz
Temp
12 12 12 12 12 12 12 12 12 12 12 12 12 12 12 12 12 12 12 12 12 12 12 12 13 11 11 13 12 12 11 11 12 12 12 13 12 12 11 12 12 11 12 12 11
12 12 12 12 12 12 12 12 12 12 12 12 12 12 12 12 12 12 12 12 12 12 12 12 11 12 13 14 14 13 12 12 13 12 12 11 11 11 12 11 11 10 11 12 11
12 12 12 12 12 12 13 13 13 13 13 13 12 12 12 12 12 12 12 12 12 12 12 11 12 13 14 15 14 14 11 13 13 12 12 11 12 12 11 10 11 10 9 9 10
12 12 12 12 12 13 13 13 13 13 13 13 13 13 12 12 12 12 12 12 12 12 12 11 12 14 15 15 15 14 12 13 12 11 12 11 11 11 11 11 11 10 9 9 9
12 12 12 12 13 13 13 13 13 13 13 13 13 13 13 12 12 12 12 12 12 12 12 12 13 14 15 16 15 15 13 13 12 12 12 11 11 10 11 11 11 10 10 10 9
12 12 13 13 13 13 13 13 13 13 13 13 13 13 13 13 12 13 12 12 12 12 12 12 13 14 14 15 15 14 14 14 13 13 12 12 11 11 11 11 11 10 10 10 10
12 13 13 13 13 13 13 13 13 13 13 13 13 13 13 13 12 14 13 12 12 12 12 13 13 13 14 15 14 15 14 14 13 13 13 12 12 11 11 10 11 10 11 11 10
13 13 13 13 13 13 13 13 13 13 13 13 13 13 13 12 12 12 13 13 12 12 12 13 13 13 13 14 14 15 15 14 13 13 13 12 12 12 11 11 10 11 11 10 10
13 13 13 13 13 14 14 14 13 13 13 13 13 13 13 14 13 13 12 12 11 11 12 12 12 12 14 15 15 15 14 15 14 14 14 13 12 13 12 10 10 10 10 10 10
13 13 13 13 14 14 14 14 13 13 13 13 13 13 14 13 13 11 12 11 12 12 12 12 12 13 14 15 16 15 15 16 17 14 14 14 14 13 11 11 11 11 11 10 10
13 13 13 13 14 14 14 13 13 13 13 14 12 13 13 13 12 12 12 12 12 12 12 13 13 14 15 16 17 17 17 17 17 16 15 15 15 14 14 12 12 11 11 10 10
12 13 13 13 13 13 14 13 10 12 12 14 13 12 13 13 12 12 12 12 12 13 13 13 14 15 16 16 17 17 16 16 17 17 15 15 15 15 14 14 12 12 11 11 10
12 13 13 13 13 13 13 13 13 13 12 14 14 13 13 12 13 13 12 12 13 13 14 15 15 16 16 16 16 17 16 17 17 17 16 16 16 15 15 13 14 13 12 12 11
13 13 13 13 13 13 13 13 13 12 11 15 14 13 13 13 13 14 13 13 13 14 15 15 16 16 17 16 16 17 17 17 17 16 16 16 15 15 15 14 14 14 13 12 12
12 13 13 13 13 12 12 13 12 12 15 15 14 14 14 13 15 14 14 13 14 15 15 15 16 16 16 16 16 16 17 17 16 16 16 17 16 15 15 13 15 15 14 13 13
12 13 13 13 13 12 13 12 12 12 16 16 15 14 14 14 14 15 14 13 14 14 15 15 16 16 16 16 16 16 16 16 16 16 17 18 19 16 17 17 15 16 15 14 14
13 13 13 13 13 13 12 12 11 14 17 17 16 15 14 15 14 15 14 14 14 14 15 16 16 16 16 15 16 16 16 17 17 18 18 17 17 19 17 17 17 17 16 16 14
13 13 13 13 13 12 12 10 13 17 17 17 16 16 16 15 15 15 15 15 14 15 16 17 18 17 16 16 16 17 17 17 17 19 19 17 19 20 19 18 18 17 17 16 15
12 13 12 12 12 12 11 12 15 16 16 16 16 16 17 16 16 16 16 16 16 16 16 16 17 18 17 17 16 17 17 17 18 18 19 20 20 19 19 18 18 18 17 16 15
12 13 11 12 12 12 9 12 14 14 14 14 15 17 17 17 17 16 17 17 17 16 16 16 17 17 18 17 17 16 17 17 18 18 18 19 19 18 18 18 17 17 17 16 15
11 10 11 11 11 10 11 14 15 14 12 13 14 15 16 17 17 18 17 17 17 17 17 17 17 17 17 17 17 17 17 17 17 18 19 19 19 18 18 18 17 17 17 16 15
11 11 11 11 9 11 12 14 13 13 13 13 13 14 14 15 16 16 17 17 17 16 17 17 17 17 17 17 18 17 17 17 17 17 17 18 18 18 18 18 17 16 16 15 15
11 11 10 10 11 13 14 13 13 12 13 13 13 13 13 14 14 15 15 16 15 15 15 15 16 17 17 17 18 18 18 17 18 18 18 18 18 17 16 17 17 16 16 15 15
11 11 10 9 10 11 12 12 12 12 11 11 11 11 12 12 13 13 14 14 15 14 14 14 14 15 16 17 17 16 16 15 16 15 17 18 18 17 16 16 15 16 15 15 16
9 10 10 11 11 10 10 10 11 11 12 11 10 11 11 12 12 12 12 14 14 14 14 13 13 14 14 15 16 16 16 16 15 15 14 15 18 18 16 15 16 14 15 15 16
10 10 9 9 9 9 10 10 10 10 9 9 9 10 10 10 10 9 10 10 11 11 12 13 13 13 13 14 15 15 16 16 15 15 15 15 16 17 16 14 16 15 15 14 15
9 9 9 8 9 10 10 9 8 8 8 8 8 7 8 9 8 7 7 7 8 9 9 10 11 11 12 13 13 14 15 15 16 15 15 14 15 17 17 16 15 16 15 13 15